Racecast

Alex Knapp

Temperance Bedford (MI) · 12 · SECMI D1MONROE · Compare head to head

Athlete rating 118.8 2020 XC season
Best race 131.8 XC
Races 67
Seasons 7 2014 — 2020

RankedNation #21911·MI #2692·MI D1 #1489·SEC #153·Team #66 ?

Rating scale ?

Cross Country

2020 XC 112.7

Temperance Bedford (MI) · Grade 12

Date Meet Event Result Place Rating Difficulty PR/SR Flags
2020-10-17 Indian Creek OFFICIAL 5000m 23:25 29th · 5th on team 116.1 +0.039 SR CSR RSR
2020-10-10 Indian Creek OFFICIAL 5000m 24:02.4 22nd · 13th on team 115.4 +0.039
2020-10-03 Indian Creek OFFICIAL 5000m 23:34.9 20th · 16th on team 115.1 +0.039 SR CSR
2020-09-26 Indian Creek OFFICIAL 5000m 23:58 21st · 9th on team 115.7 +0.039 SR CSR RSR
2020-09-19 Indian Creek OFFICIAL 5000m 24:06 18th · 15th on team 112.5 +0.039 SR CSR RSR
2020-09-12 Whiteford Valley Golf Club 5000m 24:11.9 12th · 12th on team 106.7 -0.023 ★CR SR CSR
2020-08-29 Indian Creek OFFICIAL 5000m 24:37 9th · 9th on team 111.3 +0.039 SR CSR RSR
2020-08-22 Indian Creek OFFICIAL 5000m 25:27 11th · 11th on team 108.5 +0.039 SR CSR RSR

2019 XC 108.4

Temperance Bedford (MI) · Grade 11

Date Meet Event Result Place Rating Difficulty PR/SR Flags
2019-10-26 Lake Erie Metro Park OFFICIAL 5000m 24:31.3 67th · 13th on team 112.1 +0.055 CSR RSR
2019-10-17 Hudson Mills Metropark - OFFICIAL 5000m 24:26 74th · 11th on team 110.6 +0.036 CSR RSR
2019-10-12 Munson Park 5000m 25:00.1 25th · 6th on team 110.0 +0.054 CSR
2019-10-05 Portage West MS 5000m 24:23 177th · 10th on team 110.5 +0.038 SR CSR RSR
2019-09-28 Lake Erie Metro Park OFFICIAL 5000m 25:24.7 25th · 9th on team 107.5 +0.055 CSR
2019-09-24 Indian Creek OFFICIAL 5000m 24:56.6 33rd · 2nd on team 109.5 +0.039 SR CSR RSR
2019-09-10 Hudson Mills Metropark - OFFICIAL 5000m 27:10.8 55th · 4th on team 98.9 +0.036 SR CSR RSR

2018 XC 110.7

Temperance Bedford (MI) · Grade 10

Date Meet Event Result Place Rating Difficulty PR/SR Flags
2018-10-27 Lake Erie Metro Park OFFICIAL 5000m 24:17 58th · 10th on team 112.9 +0.055 CSR
2018-10-18 Hudson Mills Metropark - OFFICIAL 5000m 24:09.8 91st · 11th on team 111.0 +0.036 CSR
2018-10-13 Munson Park 5000m 24:23.6 32nd · 7th on team 111.7 +0.054 ★CR CSR
2018-10-09 Indian Creek OFFICIAL 5000m 24:32 9th · 9th on team 111.9 +0.039 CSR
2018-09-25 Cass Benton Park OFFICIAL 5000m 26:09 31st · 6th on team 108.1 +0.091 ★CR CSR
2018-09-21 Ella Sharp Park OFFICIAL 5000m 24:07 49th · 5th on team 113.0 +0.038 ★CR SR CSR RSR
2018-09-06 Willow Metropark OFFICIAL 5000m 25:28.8 66th · 5th on team 106.1 +0.048 ★CR SR CSR RSR

2017 XC 113.6

Temperance Bedford (MI) · Grade 9

Date Meet Event Result Place Rating Difficulty PR/SR Flags
2017-10-28 Lake Erie Metro Park OFFICIAL 5000m 22:45.8 32nd · 7th on team 120.0 +0.055 ★PR ★CR SR CSR RSR
2017-10-19 Hudson Mills Metropark - OFFICIAL 5000m 23:14.5 52nd · 7th on team 116.4 +0.036 ★CR CSR
2017-10-10 Indian Creek OFFICIAL 5000m 23:09.2 6th · 6th on team 116.8 +0.039 PR ★CR SR CSR
2017-10-07 Portage West MS 5000m 23:47.6 126th · 4th on team 114.6 +0.038 ★CR CSR
2017-09-30 Lake Erie Metro Park OFFICIAL 5000m 23:09.9 8th · 5th on team 117.3 +0.055 PR CR SR CSR RSR
2017-09-22 Ella Sharp Park OFFICIAL 5000m 24:09 53rd · 5th on team 114.0 +0.038 CR CSR RSR
2017-09-12 Hudson Mills Metropark - OFFICIAL 5000m 24:04.6 45th · 6th on team 111.8 +0.036 CR CSR RSR
2017-09-09 Hedges Boyer Park 5000m 23:47.7 108th · 2nd on team 105.3 -0.036 PR ★CR SR CSR
2017-08-26 Boy Scout Camp Lakota 5000m 24:17.6 92nd · 16th on team 106.3 -0.003 PR ★CR SR CSR RSR

2015 XC 122.5

Temperance Bedford (MI) · Grade 7

Date Meet Event Result Place Rating Difficulty PR/SR Flags
2015-10-24 Hudson Mills Metropark - OFFICIAL 3218m 14:53 8th · 1st on team 131.8 +0.062 ★PR ★CR ★R SR CSR RSR
2015-10-17 Munson Park 3200m 14:53.7 20th · 10th on team 126.7 +0.034 ★PR ★CR R SR CSR RSR
2015-10-14 Munson Park 3200m 15:01.3 43rd · 11th on team 124.7 +0.034 PR CR SR CSR
2015-09-30 Hudson Mills Metropark - OFFICIAL 3200m 15:41.6 58th · 10th on team 124.3 +0.062 PR ★CR SR CSR
2015-09-26 Sterling State Park 3218m 16:10 49th · 11th on team 121.0 +0.057 PR ★CR SR CSR
2015-09-16 Mill Pond Park 3621m 18:26.3 50th · 10th on team 125.1 +0.099 ★PR ★CR R SR CSR RSR
2015-09-12 Hedges Boyer Park 3200m 15:57 18th · 8th on team 103.9 -0.089 PR ★CR SR CSR RSR

2014 XC 105.6

Temperance Bedford (MI) · Grade 6

Date Meet Event Result Place Rating Difficulty PR/SR Flags
2014-10-11 Munson Park 2000m 11:22.6 59th · 9th on team 102.3 +0.073 ★PR ★CR SR CSR
2014-09-20 Sterling State Park 2092m 10:32.1 69th · 8th on team 108.9 -0.003 ★PR ★CR R SR CSR RSR

Track & Field

2018 TF 104.1

Temperance Bedford (MI) · Grade 9

Date Meet Event Result Place Rating Difficulty PR/SR Flags
2018-05-26 2018 MITCA D1 Team State Championships 800m 2:57.52 30th · 3rd on team 104.0 -0.028 ★PR SR
2018-05-26 2018 MITCA D1 Team State Championships 1600m 6:29.65 30th · 3rd on team 106.2 -0.028
2018-05-24 Freshman Beck Invitational 1600m 6:37.5 3rd · 1st on team 105.2 -0.022
2018-05-24 Freshman Beck Invitational 800m 2:57.6 2nd · 1st on team 104.9 -0.022 PR SR
2018-05-17 21st River Rat Girls JV Invitational 800m 2:58.62 8th · 1st on team 103.0 -0.034 PR SR
2018-05-17 21st River Rat Girls JV Invitational 1600m 6:25.13 19th · 1st on team 107.4 -0.034 ★PR SR RSR
2018-05-07 SEC Red: Huron @ Bedford 3200m 14:00 1st · 1st on team 106.8 -0.033 ★PR SR RSR
2018-05-01 SEC Red: Bedford & Skyline @ Monroe 800m 2:58.7 7th · 1st on team 103.1 -0.032 PR SR
2018-05-01 SEC Red: Bedford & Skyline @ Monroe 1600m 6:31.97 10th · 3rd on team 105.7 -0.032 PR SR RSR
2018-04-24 Saline/Bedford Dual 1600m 6:33.48 10th · 2nd on team 103.9 -0.042 PR SR RSR
2018-04-24 Saline/Bedford Dual 800m 3:06.4 8th · 3rd on team 97.9 -0.042 PR SR
2018-04-21 Whitmore Lake HS Invite 3200m 14:24.06 12th · 3rd on team 103.1 -0.029 PR SR RSR
2018-04-10 SEC Red Division - Pioneer @ Bedford 1600m 6:42 11th · 3rd on team 102.5 -0.033 SR RSR

2016 TF 107.6

Temperance Bedford (MI) · Grade 7

Date Meet Event Result Place Rating Difficulty PR/SR Flags
2016-05-18 Saline Hornet MS Relays 1600m 6:57.53 35th · 6th on team 105.4 -0.042
2016-05-17 Bedford @ Chelsea 200mh 41.37 11th · 4th on team -0.029
2016-05-17 Bedford @ Chelsea 1600m 6:49.08 6th · 3rd on team 109.1 -0.029
2016-05-12 Bedford at Lincoln 1600m 6:51 3rd · 3rd on team 108.3 -0.032
2016-05-12 Bedford at Lincoln 200mh 43.74 4th · 4th on team -0.032
2016-05-09 Dexter Mill Creek @ Bedford 1600m 6:47 4th · 4th on team 109.3 -0.033
2016-05-05 Bedford MS @ Saline MS 200mh 40.1 11th · 4th on team -0.038
2016-05-05 Bedford MS @ Saline MS 1600m 6:53 7th · 4th on team 107.5 -0.038
2016-05-02 Bedford at Ypsilanti 200mh 14:24 4th · 4th on team -0.029
2016-05-02 Bedford at Ypsilanti 1600m 6:40 1st · 1st on team 111.6 -0.029 PR SR RSR
2016-04-28 Monroe @ Bedford 200mh 44 5th · 5th on team -0.033
2016-04-28 Monroe @ Bedford 1600m 6:58 3rd · 3rd on team 107.6 -0.033 PR SR RSR
2016-04-25 Tecumseh @ Bedford 200mh 40 3rd · 3rd on team -0.033 ★PR SR
2016-04-25 Tecumseh @ Bedford 3200m 15:53 2nd · 2nd on team 101.7 -0.033 PR SR RSR